Location: Brachbach
(49.1847°N, 9.7240°E)
Time: 07:17:41
(UTC+00:00)

FO-29 - Pass Details

Date: 19 March 2026
Orbit: 801 x 1320 km, 98.5° (Epoch: 17 April)

Event Time Altitude Azimuth Distance (km) Brightness Sun altitude
Rises 04:35:23 0° 100° (E) 3,628 14.0 -9.1°
Reaches altitude 10° 04:38:51 10° 78° (ENE) 2,784 13.6 -8.6°
Maximum altitude 04:42:14 15° 45° (NE) 2,509 12.5 -8.0°
Drops below altitude 10° 04:45:50 10° 13° (NNE) 2,989 12.3 -7.4°
Sets 04:49:44 0° 353° (N) 4,057 12.7 -6.8°
